This is the latest recevied weather packets stored in our database for station/object W7MB. If no packets are shown the sender has not sent any weather packets the latest 10 day(s).
| Time | Temp. | Humidity | Pressure | Rain* | Wind** | Luminosity | Snow |
|---|---|---|---|---|---|---|---|
| 1777493883 | 21.11° C | 48% | 1021.9 hPa | 0 mm | - | - | - |
| 1777493523 | 22.22° C | 39% | 1022 hPa | 0 mm | - | - | - |
| 1777493164 | 22.78° C | 41% | 1022.1 hPa | 0 mm | - | - | - |
| 1777492804 | 22.78° C | 44% | 1021.9 hPa | 0 mm | - | - | - |
| 1777492443 | 22.78° C | 44% | 1022 hPa | 0 mm | - | - | - |
| 1777492084 | 22.22° C | 49% | 1022 hPa | 0 mm | - | - | - |
| 1777491725 | 22.22° C | 47% | 1022.1 hPa | 0 mm | - | - | - |
| 1777491363 | 21.67° C | 44% | 1022 hPa | 0 mm | - | - | - |
| 1777491003 | 21.67° C | 46% | 1022.1 hPa | 0 mm | - | - | - |
| 1777490643 | 21.67° C | 42% | 1022.1 hPa | 0 mm | - | - | - |
| 1777490283 | 21.11° C | 49% | 1022.2 hPa | 0 mm | - | - | - |
| 1777489923 | 20.56° C | 51% | 1022 hPa | 0 mm | - | - | - |
| 1777489563 | 20.56° C | 44% | 1022.1 hPa | 0 mm | - | - | - |
| 1777489203 | 20.56° C | 42% | 1022.2 hPa | 0 mm | - | - | - |
| 1777488844 | 20.56° C | 50% | 1022.2 hPa | 0 mm | - | - | - |
| 1777488484 | 20.56° C | 52% | 1022.2 hPa | 0 mm | - | - | - |
| 1777488123 | 19.44° C | 57% | 1022.3 hPa | 0 mm | - | - | - |
| 1777487763 | 18.89° C | 56% | 1022.4 hPa | 0 mm | - | - | - |
| 1777487404 | 17.78° C | 55% | 1022.5 hPa | 0 mm | - | - | - |
| 1777487043 | 17.78° C | 54% | 1022.5 hPa | 0 mm | - | - | - |
| 1777486684 | 18.33° C | 53% | 1022.3 hPa | 0 mm | - | - | - |
| 1777486323 | 18.33° C | 51% | 1022.5 hPa | 0 mm | - | - | - |
| 1777485963 | 17.78° C | 58% | 1022.5 hPa | 0 mm | - | - | - |
| 1777485604 | 17.22° C | 59% | 1022.6 hPa | 0 mm | - | - | - |
| 1777485243 | 16.67° C | 62% | 1022.6 hPa | 0 mm | - | - | - |
* Rain latest hour (hover to see other rain measurements)
** Current wind speed in m/s (hover to see current wind gust speed)